Weather History for Andrews, NC

Change the Weather History Date:

Wednesday, November 21, 2012

  Actual Average (KTYS) Record (KTYS)
Temperature  
Mean Temperature 50 °F 48 °F  
Max Temperature 69 °F 58 °F 76 °F (1883)
Min Temperature 32 °F 37 °F 15 °F (1887)
Degree Days  
Heating Degree Days 14 17  
Month to date heating degree days 292  
Since 1 July heating degree days 511  
Cooling Degree Days 0 0  
Month to date cooling degree days 0  
Year to date cooling degree days 1523  
Moisture  
Dew Point 41 °F    
Average Humidity 78    
Maximum Humidity 100    
Minimum Humidity 38    
Precipitation  
Precipitation 0.00 in 0.15 in 2.27 in (1952)
Month to date precipitation 2.65  
Year to date precipitation 42.00  
Snow  
Snow 0.00 in 0.00 in - ()
Month to date snowfall 0.0  
Since 1 July snowfall 0.0  
Since 1 September snowfall 0.0  
Snow Depth -    
Sea Level Pressure  
Sea Level Pressure 30.16 in    
Wind  
Wind Speed 2 mph (North)    
Max Wind Speed 14 mph    
Max Gust Speed 17 mph    
Visibility 10 miles    
Events      
T = Trace of Precipitation, MM = Missing Value Source: NWS Daily Summary

Daily Weather History Graph

Daily Weather History Graph

Search for Another Location

Airport:

Trip Planner

Search our weather history database for the weather conditions in past years. The results will help you decide how hot, cold, wet, or windy it might be!

Date:

Astronomy

Nov. 21, 2012 Rise Set
Actual Time 7:16 AM EST 5:26 PM EST
Civil Twilight 6:49 AM EST 5:53 PM EST
Nautical Twilight 6:18 AM EST 6:24 PM EST
Astronomical Twilight 5:48 AM EST 6:54 PM EST
Moon 1:29 PM EST (11/21) 12:48 AM EST (11/21)
Length of Visible Light 11h 04m
Length of Day
10h 09m
First Quarter, 61% of the Moon is Illuminated
Nov 21
First Quarter
Nov 28
Full
Dec 6
Last Quarter
Dec 13
New
Dec 20
First Quarter

Hourly Weather History & Observations

Time (EST) Temp. Dew Point Humidity Pressure Visibility Wind Dir Wind Speed Gust Speed Precip Events Conditions
12:15 AM 41.0 °F 39.2 °F 93% 30.13 in 10.0 mi Calm Calm - N/A   Clear
12:35 AM 41.0 °F 39.2 °F 93% 30.13 in 10.0 mi Calm Calm - N/A   Clear
12:55 AM 37.4 °F 37.4 °F 100% 30.13 in 10.0 mi Calm Calm - N/A   Clear
1:15 AM 37.4 °F 37.4 °F 100% 30.12 in 10.0 mi Calm Calm - N/A   Clear
1:35 AM 37.4 °F 37.4 °F 100% 30.12 in 10.0 mi Calm Calm - N/A   Clear
1:55 AM 39.2 °F 37.4 °F 93% 30.12 in 10.0 mi Calm Calm - N/A   Clear
2:15 AM 37.4 °F 37.4 °F 100% 30.12 in 10.0 mi Calm Calm - N/A   Clear
2:35 AM 37.4 °F 35.6 °F 93% 30.13 in 10.0 mi Calm Calm - N/A   Scattered Clouds
2:55 AM 35.6 °F 35.6 °F 100% 30.13 in 10.0 mi Calm Calm - N/A   Overcast
3:15 AM 35.6 °F 35.6 °F 100% 30.13 in 10.0 mi Calm Calm - N/A   Overcast
3:35 AM 35.6 °F 35.6 °F 100% 30.13 in 10.0 mi Calm Calm - N/A   Scattered Clouds
3:55 AM 37.4 °F 37.4 °F 100% 30.13 in 10.0 mi Calm Calm - N/A   Clear
4:15 AM 37.4 °F 35.6 °F 93% 30.13 in 10.0 mi Calm Calm - N/A   Clear
4:35 AM 35.6 °F 35.6 °F 100% 30.13 in 10.0 mi Calm Calm - N/A   Clear
4:55 AM 35.6 °F 35.6 °F 100% 30.13 in 10.0 mi Calm Calm - N/A   Clear
5:15 AM 37.4 °F 37.4 °F 100% 30.13 in 10.0 mi Calm Calm - N/A   Clear
5:35 AM 35.6 °F 35.6 °F 100% 30.13 in 10.0 mi Calm Calm - N/A   Clear
5:55 AM 33.8 °F 33.8 °F 100% 30.14 in 10.0 mi Calm Calm - N/A   Clear
6:15 AM 33.8 °F 33.8 °F 100% 30.15 in 7.0 mi Calm Calm - N/A   Clear
6:35 AM 33.8 °F 33.8 °F 100% 30.15 in 10.0 mi Calm Calm - N/A   Clear
6:55 AM 33.8 °F 33.8 °F 100% 30.16 in 7.0 mi Calm Calm - N/A   Clear
7:15 AM 32.0 °F 32.0 °F 100% 30.16 in 7.0 mi Calm Calm - N/A   Clear
7:35 AM 32.0 °F 32.0 °F 100% 30.17 in 10.0 mi Calm Calm - N/A   Clear
7:55 AM 33.8 °F 33.8 °F 100% 30.18 in 10.0 mi Calm Calm - N/A   Clear
8:15 AM 35.6 °F 35.6 °F 100% 30.18 in 10.0 mi Calm Calm - N/A   Clear
8:35 AM 37.4 °F 37.4 °F 100% 30.18 in 10.0 mi Calm Calm - N/A   Clear
8:55 AM 41.0 °F 39.2 °F 93% 30.18 in 10.0 mi Calm Calm - N/A   Clear
9:15 AM 42.8 °F 41.0 °F 93% 30.18 in 10.0 mi Calm Calm - N/A   Clear
9:35 AM 44.6 °F 42.8 °F 93% 30.18 in 10.0 mi Calm Calm - N/A   Clear
9:55 AM 48.2 °F 42.8 °F 82% 30.18 in 10.0 mi Calm Calm - N/A   Clear
10:15 AM 51.8 °F 46.4 °F 82% 30.19 in 10.0 mi SW 4.6 mph - N/A   Clear
10:35 AM 57.2 °F 50.0 °F 77% 30.18 in 10.0 mi SSW 3.5 mph - N/A   Clear
10:55 AM 59.0 °F 46.4 °F 63% 30.18 in 10.0 mi SW 4.6 mph - N/A   Clear
11:15 AM 60.8 °F 48.2 °F 63% 30.17 in 10.0 mi WSW 4.6 mph - N/A   Clear
11:35 AM 62.6 °F 46.4 °F 55% 30.16 in 10.0 mi WSW 3.5 mph - N/A   Clear
11:55 AM 68.0 °F 48.2 °F 49% 30.16 in 10.0 mi Calm Calm - N/A   Clear
12:15 PM 64.4 °F 42.8 °F 45% 30.14 in 10.0 mi South 4.6 mph - N/A   Clear
12:35 PM 68.0 °F 42.8 °F 40% 30.14 in 10.0 mi Calm Calm - N/A   Clear
12:55 PM 69.8 °F 42.8 °F 38% 30.14 in 10.0 mi NNE 6.9 mph - N/A   Clear
1:15 PM 69.8 °F 42.8 °F 38% 30.13 in 10.0 mi NNW 10.4 mph - N/A   Clear
1:35 PM 69.8 °F 42.8 °F 38% 30.13 in 10.0 mi NNE 8.1 mph - N/A   Clear
1:55 PM 69.8 °F 42.8 °F 38% 30.13 in 10.0 mi NE 6.9 mph - N/A   Clear
2:15 PM 69.8 °F 42.8 °F 38% 30.12 in 10.0 mi NE 4.6 mph - N/A   Clear
2:35 PM 69.8 °F 44.6 °F 40% 30.12 in 10.0 mi North 8.1 mph - N/A   Clear
2:55 PM 69.8 °F 44.6 °F 40% 30.11 in 10.0 mi North 6.9 mph - N/A   Clear
3:15 PM 69.8 °F 42.8 °F 38% 30.11 in 10.0 mi NW 8.1 mph - N/A   Clear
3:35 PM 68.0 °F 42.8 °F 40% 30.11 in 10.0 mi North 8.1 mph - N/A   Clear
3:55 PM 68.0 °F 42.8 °F 40% 30.12 in 10.0 mi NNE 10.4 mph - N/A   Clear
4:15 PM 68.0 °F 42.8 °F 40% 30.12 in 10.0 mi North 10.4 mph - N/A   Clear
4:35 PM 66.2 °F 42.8 °F 43% 30.13 in 10.0 mi North 13.8 mph 17.3 mph N/A   Clear
4:55 PM 64.4 °F 42.8 °F 45% 30.14 in 10.0 mi North 10.4 mph - N/A   Clear
5:15 PM 64.4 °F 42.8 °F 45% 30.14 in 10.0 mi North 8.1 mph - N/A   Clear
5:35 PM 62.6 °F 42.8 °F 48% 30.15 in 10.0 mi NNE 6.9 mph 16.1 mph N/A   Clear
5:55 PM 60.8 °F 41.0 °F 48% 30.15 in 10.0 mi NNE 5.8 mph - N/A   Clear
6:15 PM 57.2 °F 42.8 °F 59% 30.16 in 10.0 mi SE 4.6 mph - N/A   Clear
6:35 PM 51.8 °F 41.0 °F 67% 30.17 in 10.0 mi ESE 5.8 mph - N/A   Clear
6:55 PM 50.0 °F 42.8 °F 76% 30.18 in 10.0 mi NE 3.5 mph - N/A   Clear
7:15 PM 51.8 °F 44.6 °F 76% 30.18 in 10.0 mi Calm Calm - N/A   Clear
7:35 PM 50.0 °F 44.6 °F 82% 30.19 in 10.0 mi Calm Calm - N/A   Clear
7:55 PM 50.0 °F 44.6 °F 82% 30.20 in 10.0 mi Calm Calm - N/A   Clear
8:15 PM 48.2 °F 42.8 °F 82% 30.20 in 10.0 mi Calm Calm - N/A   Clear
8:35 PM 44.6 °F 42.8 °F 93% 30.20 in 10.0 mi Calm Calm - N/A   Clear
8:55 PM 46.4 °F 42.8 °F 87% 30.20 in 10.0 mi Calm Calm - N/A   Clear
9:15 PM 46.4 °F 42.8 °F 87% 30.20 in 10.0 mi Calm Calm - N/A   Clear
9:35 PM 46.4 °F 42.8 °F 87% 30.20 in 7.0 mi Calm Calm - N/A   Scattered Clouds
9:55 PM 46.4 °F 42.8 °F 87% 30.20 in 10.0 mi Calm Calm - N/A   Scattered Clouds
10:15 PM 44.6 °F 42.8 °F 93% 30.21 in 10.0 mi Calm Calm - N/A   Clear
10:35 PM 44.6 °F 42.8 °F 93% 30.21 in 10.0 mi Calm Calm - N/A   Clear
10:55 PM 42.8 °F 41.0 °F 93% 30.21 in 10.0 mi Calm Calm - N/A   Clear
11:15 PM 42.8 °F 42.8 °F 100% 30.20 in 10.0 mi Calm Calm - N/A   Clear
11:35 PM 42.8 °F 42.8 °F 100% 30.20 in 10.0 mi Calm Calm - N/A   Clear
11:55 PM 41.0 °F 41.0 °F 100% 30.20 in 10.0 mi Calm Calm - N/A   Clear